• In Uzbekistan
  • List of Countries
  • For 7 days
  • Water Temperature
  • Satellite Maps
  • Weather Map
  • Weather Widgets
  • user-avatar
    Login

    Hourly Weather Veszprem

    Today, 23 October, Monday

    Time Temperature Precipitation Wind Pressure Humidity
    00:00 +7°C° 1.5 mm 8 mps 736 mmHg 85%
    01:00 +6°C° 1.5 mm 8 mps 736 mmHg 85%
    02:00 +6°C° 1.3 mm 9 mps 735 mmHg 84%
    03:00 +6°C° 1.3 mm 9 mps 735 mmHg 83%
    04:00 +6°C° 1.3 mm 9 mps 734 mmHg 82%
    05:00 +6°C° 0.7 mm 9 mps 734 mmHg 82%
    06:00 +6°C° 0.7 mm 9 mps 734 mmHg 82%
    07:00 +6°C° 0.7 mm 9 mps 734 mmHg 82%
    08:00 +6°C° 1.1 mm 9 mps 734 mmHg 82%
    09:00 +6°C° 1.1 mm 10 mps 734 mmHg 81%
    10:00 +6°C° 1.1 mm 10 mps 734 mmHg 81%
    11:00 +6°C° 0.7 mm 10 mps 734 mmHg 80%
    12:00 +7°C° 0.7 mm 10 mps 735 mmHg 79%
    13:00 +7°C° 0.7 mm 10 mps 735 mmHg 78%
    14:00 +7°C° 0.5 mm 10 mps 735 mmHg 79%
    15:00 +7°C° 0.5 mm 10 mps 735 mmHg 79%
    16:00 +7°C° 0.5 mm 9 mps 735 mmHg 80%
    17:00 +7°C° 0.3 mm 9 mps 736 mmHg 80%
    18:00 +7°C° 0.3 mm 9 mps 736 mmHg 80%
    19:00 +7°C° 0.3 mm 10 mps 736 mmHg 80%
    20:00 +7°C° 0.1 mm 10 mps 737 mmHg 80%
    21:00 +7°C° 0.1 mm 10 mps 737 mmHg 80%
    22:00 +7°C° 0.1 mm 10 mps 737 mmHg 79%
    23:00 +7°C° 0.1 mm 9 mps 738 mmHg 79%

    Tomorrow, 24 October, Tuesday

    Time Temperature Precipitation Wind Pressure Humidity
    00:00 +7°C° 0.1 mm 9 mps 738 mmHg 79%
    01:00 +7°C° 0.1 mm 9 mps 738 mmHg 79%
    02:00 +7°C° 0 mm 9 mps 739 mmHg 79%
    03:00 +7°C° 0 mm 9 mps 739 mmHg 79%
    04:00 +7°C° 0 mm 9 mps 739 mmHg 78%
    05:00 +7°C° 0 mm 9 mps 740 mmHg 78%
    06:00 +6°C° 0 mm 9 mps 740 mmHg 79%
    07:00 +6°C° 0 mm 9 mps 741 mmHg 79%
    08:00 +7°C° 0 mm 9 mps 741 mmHg 74%
    09:00 +8°C° 0 mm 9 mps 742 mmHg 69%
    10:00 +9°C° 0 mm 10 mps 742 mmHg 65%
    11:00 +11°C° 0 mm 10 mps 742 mmHg 62%
    12:00 +12°C° 0 mm 9 mps 742 mmHg 59%
    13:00 +13°C° 0 mm 9 mps 742 mmHg 56%
    14:00 +12°C° 0 mm 9 mps 742 mmHg 57%
    15:00 +12°C° 0 mm 8 mps 743 mmHg 59%
    16:00 +11°C° 0 mm 7 mps 743 mmHg 60%
    17:00 +10°C° 0 mm 7 mps 743 mmHg 63%
    18:00 +9°C° 0 mm 6 mps 744 mmHg 67%
    19:00 +8°C° 0 mm 6 mps 745 mmHg 70%
    20:00 +8°C° 0 mm 5 mps 745 mmHg 72%
    21:00 +7°C° 0 mm 5 mps 745 mmHg 73%
    22:00 +6°C° 0 mm 4 mps 746 mmHg 75%
    23:00 +6°C° 0 mm 4 mps 746 mmHg 76%

    Day after tomorrow, 25 October, Wednesday

    Time Temperature Precipitation Wind Pressure Humidity
    00:00 +7°C° 0 mm 3 mps 746 mmHg 78%
    01:00 +5°C° 0 mm 3 mps 746 mmHg 79%
    02:00 +5°C° 0 mm 3 mps 746 mmHg 80%
    03:00 +5°C° 0 mm 2 mps 746 mmHg 81%
    04:00 +5°C° 0 mm 2 mps 746 mmHg 81%
    05:00 +5°C° 0 mm 2 mps 747 mmHg 81%
    06:00 +5°C° 0 mm 2 mps 747 mmHg 81%
    07:00 +5°C° 0 mm 2 mps 747 mmHg 81%
    08:00 +7°C° 0 mm 2 mps 747 mmHg 74%
    09:00 +9°C° 0 mm 2 mps 748 mmHg 66%
    10:00 +12°C° 0 mm 2 mps 748 mmHg 59%
    11:00 +13°C° 0 mm 2 mps 748 mmHg 57%
    12:00 +14°C° 0 mm 2 mps 748 mmHg 55%
    13:00 +15°C° 0 mm 2 mps 747 mmHg 53%
    14:00 +15°C° 0 mm 2 mps 747 mmHg 57%
    15:00 +15°C° 0 mm 1 mps 747 mmHg 61%
    16:00 +14°C° 0 mm 1 mps 747 mmHg 65%
    17:00 +13°C° 0 mm 1 mps 747 mmHg 70%
    18:00 +12°C° 0 mm 1 mps 748 mmHg 74%
    19:00 +11°C° 0 mm 1 mps 748 mmHg 78%
    20:00 +11°C° 0 mm 1 mps 748 mmHg 80%
    21:00 +11°C° 0 mm 1 mps 748 mmHg 82%
    22:00 +11°C° 0 mm 1 mps 748 mmHg 84%
    23:00 +11°C° 0 mm 1 mps 748 mmHg 85%

    26 October, Thursday

    Time Temperature Precipitation Wind Pressure Humidity
    00:00 +9°C° 0 mm 2 mps 748 mmHg 86%
    01:00 +9°C° 0 mm 2 mps 748 mmHg 88%
    02:00 +9°C° 0 mm 2 mps 748 mmHg 88%
    03:00 +9°C° 0 mm 2 mps 748 mmHg 89%
    04:00 +9°C° 0 mm 2 mps 748 mmHg 89%
    05:00 +9°C° 0 mm 2 mps 748 mmHg 89%
    06:00 +9°C° 0 mm 2 mps 748 mmHg 89%
    07:00 +9°C° 0 mm 2 mps 748 mmHg 89%
    08:00 +12°C° 0 mm 2 mps 748 mmHg 81%
    09:00 +14°C° 0 mm 2 mps 748 mmHg 73%
    10:00 +16°C° 0 mm 2 mps 748 mmHg 65%
    11:00 +17°C° 0 mm 3 mps 748 mmHg 61%
    12:00 +18°C° 0 mm 3 mps 747 mmHg 58%
    13:00 +19°C° 0 mm 3 mps 747 mmHg 54%
    14:00 +18°C° 0 mm 3 mps 746 mmHg 58%
    15:00 +18°C° 0 mm 2 mps 746 mmHg 62%
    16:00 +17°C° 0 mm 2 mps 746 mmHg 65%
    17:00 +16°C° 0 mm 2 mps 746 mmHg 69%
    18:00 +15°C° 0 mm 2 mps 745 mmHg 73%
    19:00 +13°C° 0 mm 2 mps 745 mmHg 76%
    20:00 +13°C° 0 mm 2 mps 745 mmHg 76%
    21:00 +13°C° 0 mm 2 mps 745 mmHg 76%
    22:00 +12°C° 0 mm 2 mps 745 mmHg 76%
    23:00 +12°C° 0 mm 2 mps 744 mmHg 76%

    27 October, Friday

    Time Temperature Precipitation Wind Pressure Humidity
    00:00 +12°C° 0 mm 2 mps 744 mmHg 75%
    01:00 +12°C° 0 mm 2 mps 744 mmHg 75%
    02:00 +10°C° 0 mm 2 mps 743 mmHg 75%
    03:00 +10°C° 0 mm 2 mps 743 mmHg 76%
    04:00 +10°C° 0 mm 2 mps 742 mmHg 76%
    05:00 +10°C° 0 mm 2 mps 742 mmHg 77%
    06:00 +10°C° 0 mm 2 mps 742 mmHg 78%
    07:00 +10°C° 0 mm 2 mps 741 mmHg 79%
    08:00 +13°C° 0 mm 2 mps 741 mmHg 72%
    09:00 +15°C° 0 mm 2 mps 741 mmHg 65%
    10:00 +17°C° 0 mm 2 mps 741 mmHg 59%
    11:00 +18°C° 0 mm 3 mps 740 mmHg 55%
    12:00 +19°C° 0 mm 3 mps 739 mmHg 52%
    13:00 +20°C° 0 mm 3 mps 738 mmHg 49%
    14:00 +19°C° 0 mm 3 mps 738 mmHg 54%
    15:00 +18°C° 0 mm 3 mps 737 mmHg 58%
    16:00 +17°C° 0 mm 3 mps 737 mmHg 63%
    17:00 +16°C° 0.1 mm 3 mps 737 mmHg 66%
    18:00 +14°C° 0.1 mm 4 mps 737 mmHg 70%
    19:00 +13°C° 0.1 mm 5 mps 737 mmHg 74%
    20:00 +11°C° 0.1 mm 6 mps 738 mmHg 71%
    21:00 +10°C° 0.1 mm 6 mps 738 mmHg 68%
    22:00 +9°C° 0.1 mm 7 mps 739 mmHg 66%
    23:00 +8°C° 0 mm 7 mps 738 mmHg 68%

    28 October, Saturday

    Time Temperature Precipitation Wind Pressure Humidity
    00:00 +8°C° 0 mm 6 mps 738 mmHg 70%
    01:00 +7°C° 0 mm 6 mps 738 mmHg 72%
    02:00 +7°C° 0 mm 5 mps 738 mmHg 73%
    03:00 +7°C° 0 mm 5 mps 738 mmHg 74%
    04:00 +7°C° 0 mm 5 mps 737 mmHg 74%
    05:00 +7°C° 0 mm 4 mps 737 mmHg 74%
    06:00 +7°C° 0 mm 4 mps 737 mmHg 73%
    07:00 +7°C° 0 mm 4 mps 737 mmHg 72%
    08:00 +8°C° 0.1 mm 4 mps 737 mmHg 70%
    09:00 +8°C° 0.1 mm 5 mps 737 mmHg 67%
    10:00 +9°C° 0.1 mm 5 mps 736 mmHg 65%
    11:00 +9°C° 0.2 mm 6 mps 736 mmHg 63%
    12:00 +10°C° 0.2 mm 6 mps 735 mmHg 61%
    13:00 +10°C° 0.2 mm 6 mps 735 mmHg 59%
    14:00 +10°C° 0.3 mm 5 mps 734 mmHg 63%
    15:00 +9°C° 0.3 mm 5 mps 734 mmHg 67%
    16:00 +10°C° 0.3 mm 4 mps 734 mmHg 70%
    17:00 +8°C° 0.7 mm 4 mps 734 mmHg 75%
    18:00 +8°C° 0.7 mm 4 mps 734 mmHg 79%
    19:00 +7°C° 0.7 mm 4 mps 734 mmHg 84%
    20:00 +7°C° 0.3 mm 4 mps 734 mmHg 84%
    21:00 +7°C° 0.3 mm 4 mps 734 mmHg 84%
    22:00 +7°C° 0.3 mm 4 mps 734 mmHg 85%
    23:00 +7°C° 0.1 mm 4 mps 734 mmHg 84%

    29 October, Sunday

    Time Temperature Precipitation Wind Pressure Humidity
    00:00 +6°C° 0.1 mm 4 mps 734 mmHg 83%
    01:00 +6°C° 0.1 mm 4 mps 735 mmHg 82%
    02:00 +6°C° 0 mm 5 mps 735 mmHg 83%
    03:00 +6°C° 0 mm 5 mps 735 mmHg 84%
    04:00 +4°C° 0 mm 6 mps 735 mmHg 85%
    05:00 +5°C° 0.1 mm 6 mps 736 mmHg 84%
    06:00 +5°C° 0.1 mm 7 mps 737 mmHg 82%
    07:00 +5°C° 0.1 mm 7 mps 737 mmHg 81%
    08:00 +6°C° 0 mm 8 mps 738 mmHg 76%
    09:00 +7°C° 0 mm 8 mps 739 mmHg 71%
    10:00 +8°C° 0 mm 9 mps 739 mmHg 66%
    11:00 +9°C° 0 mm 8 mps 739 mmHg 63%
    12:00 +10°C° 0 mm 8 mps 739 mmHg 59%
    13:00 +11°C° 0 mm 8 mps 739 mmHg 56%
    14:00 +10°C° 0 mm 7 mps 739 mmHg 57%
    15:00 +9°C° 0 mm 6 mps 739 mmHg 59%
    16:00 +9°C° 0 mm 5 mps 739 mmHg 61%
    17:00 +8°C° 0 mm 4 mps 739 mmHg 64%
    18:00 +7°C° 0 mm 4 mps 739 mmHg 67%
    19:00 +7°C° 0 mm 3 mps 739 mmHg 70%
    20:00 +8°C° 0 mm 3 mps 739 mmHg 70%
    21:00 +8°C° 0 mm 3 mps 739 mmHg 70%
    22:00 +8°C° 0 mm 3 mps 739 mmHg 70%
    23:00 +7°C° 0 mm 4 mps 739 mmHg 69%
    Show more